Location: Cella
(44.7333°N, 10.5667°E)
Time: 10:24:04
(UTC+00:00)

Cosmos 1777 Rocket - Pass Details

Date: 26 June 2021
Orbit: 757 x 776 km, 74.0° (Epoch: 28 July)

Event Time Altitude Azimuth Distance (km) Brightness Sun altitude
Rises 22:54:44 0° 323° (NW) 3,263 8.2 -21.7°
Reaches altitude 10° 22:57:54 10° 304° (WNW) 2,331 7.0 -21.7°
Maximum altitude 23:01:11 17° 265° (W) 1,891 6.0 -21.8°
Enters shadow 23:02:45 15° 244° (WSW) 1,997 5.9 -21.8°
